Location: Curupao
(10.4996°N, 66.6442°W)
Time: 04:37:28
(UTC+00:00)

BlueWalker 3 - Visible Passes

Search period start: 14 July 2024 00:00
Search period end: 24 July 2024 00:00
Orbit: 480 x 492 km, 53.2° (Epoch: 13 July)

Date Brightness Start Highest point End Pass type
(mag) Time Alt. Az. Time Alt. Az. Time Alt. Az.
14 Jul 3.9 00:06:19 10° NNE 00:08:26 15° NE 00:08:26 15° NE visible
14 Jul 3.9 23:40:34 10° NNE 23:42:33 14° NE 23:43:49 12° ENE visible
15 Jul 4.9 01:17:27 10° WNW 01:18:10 14° WNW 01:18:10 14° WNW visible
15 Jul 4.1 23:14:54 10° NNE 23:16:30 12° NE 23:18:06 10° ENE visible
16 Jul 3.9 00:51:17 10° WNW 00:53:38 25° W 00:53:38 25° W visible
17 Jul 3.2 00:25:08 10° WNW 00:28:28 32° WSW 00:29:10 29° SW visible
17 Jul 3.1 23:58:59 10° NW 00:02:25 36° WSW 00:04:45 17° S visible
18 Jul 2.9 23:32:49 10° NW 23:36:21 41° WSW 23:39:52 10° SSE visible
23 Jul 4.6 09:41:16 10° SSE 09:43:39 16° ESE 09:46:02 10° E visible
